SCP
0 0 0 0 0 0 0 0 0 0 0 0 0 0 0 0 0 0 0 0 0 0 0 0 0 0 0 0 0 0 0 0 0 0 0 0 0 0 0 0 0 0 0
0 0 0 0 0 0 0 0 0 0 0 0 0 0 0 0 0 0 0 0 0 0 0 0 0 0 0 0 0 0 0 0 0 0 0 0 0 0 0 0 0 0 0
0 0 0 0 0 0 0 0 0 0 0 0 0 0 0 0 0 0 0 0 0 0 0 0 0 0 0 0 0 0 0 0 0 0 0 0 0 0 0 0 0 0 0
0 0 0 0 0 0 0 0 0 0 0 0 0 0 0 0 0 0 0 0 0 0 0 0 0 0 0 0 0 0 0 0 0 0 0 0 0 0 0 0 0 0 0
0 0 0 0 0 0 0 0 0 0 0 0 0 0 0 0 0 0 0 0 0 0 0 0 0 0 0 0 0 0 0 0 0 0 0 0 0 0 0 0 0 0 0
0 0 0 0 0 0 0 0 -0 0 0 0 0 0 0 0 0 0 0 0 0 0 0 0 0 0 0 0 0 0 0 0 0 0 0 0 0 0 0 0 0 0 0
0 0 0 0 -0 0 0 0 0 0 0 0 0 0 0 0 0 0 0 0 0 0 0 0 0 0 0 0 0 0 0 0 0 0 0 0 0 0 0 0 0 0 0
0 0 0 -0 0 0 0 0 0 0 0 0 0 0 0 0 0 0 0 0 0 0 0 0 0 0 0 0 0 0 0 0 0 0 0 0 0 0 0 0 0 0 0
0 0 0 0 0 0 0 0 0 0 0 0 0 0 0 0 0 0 0 0 0 0 0 0 0 0 0 0 0 0 0 0 0 0 0 0 0 0 0 0 0 0 0
0 0 0 -0 0 0 0 0 0 0 0 0 0 0 0 0 0 0 0 0 0 0 0 0 0 0 0 0 0 0 0 0 0 0 0 0 0 0 0 0 0 0 0
0 0 0 0 0 0 0 0 0 0 0 0 0 0 0 0 0 0 0 0 0 0 0 0 0 0 0 0 0 0 0 0 0 0 0 0 0 0 0 0 0 0 0
0 0 0 0 0 0 0 0 0 0 0 0 0 0 0 0 0 0 0 0 0 0 0 0 0 0 0 0 0 0 0 0 0 0 0 0 0 0 0 0 0 0 0
0 0 -0 0 0 0 0 0 0 0 0 0 0 0 0 0 0 0 0 0 0 0 0 0 0 0 0 0 0 0 0 0 0 0 0 0 0 0 0 0 0 0 0
0 0 0 0 0 0 0 0 0 0 0 0 0 0 0 0 0 0 0 0 0 0 0 0 0 0 0 0 0 0 0 0 0 0 0 0 0 0 0 0 0 0 -0
0 0 0 0 0 0 0 0 0 0 0 0 0 0 0 0 0 0 0 0 0 0 0 0 0 0 0 0 0 0 0 0 0 0 0 0 0 0 0 0 0 -0 -0
-0 0 0 0 0 0 0 0 0 0 0 0 0 0 0 0 0 0 0 0 0 0 0 0 0 0 0 0 0 0 0 0 0 0 0 0 0 0 0 -0 -0 -0 -0
0 0 0 0 0 0 0 0 0 0 0 0 0 0 0 0 0 0 0 0 0 0 0 0 0 0 0 0 0 0 0 0 0 0 0 0 0 0 -0 -0 -0 -0 0
0 -0 -0 -0 0 0 0 0 0 0 0 0 0 0 0 0 0 0 0 0 0 0 0 0 0 0 0 0 0 0 0 0 0 0 0 0 0 -0 -0 -0 -0 0 0
-0 0 0 0 0 0 0 0 0 0 0 0 0 0 0 0 0 0 0 0 0 0 0 0 0 0 0 0 0 0 0 0 0 0 0 0 -0 -0 -0 -0 0 0 -0
0 0 0 0 0 0 0 0 0 0 0 0 0 0 0 0 0 0 0 0 0 0 0 0 0 0 0 0 0 0 0 0 0 0 0 0 0 -0 -0 -0 0 -0 -0
0 0 0 0 0 0 0 0 0 0 0 0 0 0 0 0 0 0 0 0 0 0 0 0 0 0 0 0 0 0 0 0 0 0 0 0 -0 -0 -0 0 0 -0 -0
0 0 0 0 0 0 0 0 0 0 0 0 0 0 0 0 0 0 0 0 0 0 0 0 0 0 0 0 0 0 0 0 0 0 0 -0 -0 -0 -0 0 0 -0 -0
0 0 0 0 0 0 0 0 0 0 0 0 0 0 0 0 0 0 0 0 0 0 0 0 0 0 0 0 0 0 0 0 0 0 0 -0 -0 -0 -0 0 0 -0 -0
0 0 0 0 0 0 0 0 0 0 0 0 0 0 0 0 0 0 0 0 0 0 0 0 0 0 0 0 0 0 0 0 0 0 -0 -0 -0 -0 -0 0 0 -0 -0
0 0 0 0 0 0 0 0 0 0 0 0 0 0 0 0 0 0 0 0 0 0 0 0 0 0 0 0 0 0 0 0 0 0 -0 -0 -0 0 0 0 0 -0 -0
0 0 0 0 0 0 0 0 0 0 0 0 0 0 0 0 0 0 0 0 0 0 0 0 0 0 0 0 0 0 0 0 0 -0 -0 -0 -0 -0 -0 0 -0 -0 -0
Wind_Speed_500mb
29 28 28 25 23 18 20 20 18 18 15 10 9 11 11 12 16 14 9 10 7 8 7 7 8 9 6 8 9 10 13 18 34 43 46 51 53 52 56 58 58 63 70
43 41 35 21 15 26 28 25 22 15 14 10 11 12 9 10 12 14 14 6 6 7 10 10 11 10 12 9 14 15 16 22 29 45 52 55 55 57 60 62 66 57 58
34 25 18 16 14 14 18 20 21 24 24 22 21 17 14 10 12 13 9 5 3 7 8 8 8 10 12 23 21 22 19 24 36 36 50 48 50 55 61 60 63 79 66
21 16 14 11 9 10 10 12 13 13 14 20 19 15 9 8 5 5 5 4 9 10 18 18 13 14 21 33 26 40 29 41 41 49 50 51 51 55 56 69 68 82 91
20 19 13 9 13 17 14 23 22 16 13 5 4 9 5 8 11 14 19 16 16 17 21 22 17 25 28 33 34 41 42 44 53 53 57 58 58 64 65 61 74 89 104
23 22 15 13 8 6 3 2 18 21 23 25 22 16 24 21 14 26 30 24 21 23 25 21 26 34 33 29 39 36 42 52 56 58 61 63 69 63 62 70 83 91 94
17 14 17 17 16 11 10 15 15 11 9 14 17 20 19 16 18 26 29 27 28 31 32 25 27 27 32 45 50 46 57 55 58 57 69 66 70 71 70 86 87 82 87
13 15 9 9 12 11 17 18 12 8 17 22 20 18 22 28 26 28 30 33 36 40 29 35 38 40 41 47 46 58 61 61 57 68 73 68 71 74 80 78 71 83 88
16 17 18 23 17 16 17 18 17 18 19 20 20 22 26 30 25 31 37 40 42 34 38 38 44 47 49 48 52 60 59 70 80 64 53 63 58 45 46 55 65 83 87
16 19 16 19 17 18 17 20 21 26 26 26 30 32 31 35 34 39 42 44 41 37 41 47 42 42 48 53 47 56 72 79 53 56 57 49 51 52 50 53 71 74 84
13 12 14 15 17 20 24 24 23 26 27 31 36 38 40 42 43 46 44 44 45 50 52 39 37 42 45 47 57 68 70 50 56 61 61 62 62 50 52 62 74 74 83
14 12 13 16 16 18 21 22 25 28 30 33 37 41 42 42 45 49 46 43 46 49 53 44 34 44 53 62 64 45 43 52 58 58 60 54 66 61 57 76 89 80 71
13 13 13 14 18 23 25 28 31 33 34 37 38 40 42 42 46 36 24 31 38 38 26 23 38 49 55 62 33 42 44 51 48 49 61 64 55 61 73 77 75 70 97
14 17 19 23 23 25 30 33 38 38 37 37 40 40 46 48 46 47 49 31 16 18 28 35 40 54 47 34 41 36 34 43 52 55 54 54 61 73 65 72 70 89 109
15 19 26 31 36 34 33 37 36 31 31 26 32 35 28 24 21 26 27 23 27 30 42 50 50 27 31 36 36 40 45 45 49 49 50 67 62 63 73 68 74 81 94
30 30 33 32 33 37 30 28 27 23 26 25 22 18 18 20 23 25 26 26 28 31 32 32 23 28 36 37 42 43 44 47 48 54 57 51 66 68 68 73 69 79 94
28 36 30 24 25 23 21 21 23 23 25 21 17 12 14 21 21 24 21 21 24 15 22 24 25 35 36 38 39 41 43 46 51 51 47 63 60 60 67 69 70 77 103
11 20 27 18 23 28 24 25 18 21 27 24 25 22 21 20 16 16 17 21 22 17 25 27 29 36 37 38 39 41 44 50 50 46 56 54 56 59 63 67 69 81 96
19 23 21 18 22 21 23 28 22 26 25 24 20 26 28 18 16 14 23 25 19 16 18 29 34 36 38 40 42 44 43 44 43 50 52 51 53 54 63 64 77 94 80
23 27 32 35 23 25 26 24 31 28 32 25 26 31 23 19 15 21 32 33 28 28 29 33 35 38 40 42 44 43 40 42 47 50 49 47 45 58 61 66 85 81 74
22 24 21 21 24 27 28 26 33 36 35 26 29 30 32 25 24 29 27 24 31 30 32 32 33 36 40 41 42 41 39 43 47 46 41 43 56 64 57 74 80 67 64
21 24 26 25 25 28 34 36 34 43 37 34 37 40 43 45 42 30 26 29 30 29 30 36 36 35 38 40 41 41 42 43 41 40 49 62 75 70 65 75 65 58 58
23 27 28 31 34 36 39 39 41 45 48 46 43 46 53 47 34 30 29 30 30 29 38 40 39 38 37 38 40 39 38 42 45 51 63 69 74 67 71 64 53 52 55
28 29 31 35 38 39 41 42 45 49 53 58 53 47 45 43 36 41 43 45 41 45 40 44 33 32 36 40 39 35 41 50 54 58 65 72 69 71 63 49 44 47 51
29 29 31 33 40 44 46 50 47 53 61 58 57 53 61 54 45 41 39 40 37 32 34 38 29 34 37 39 39 41 42 48 56 62 68 63 65 66 54 41 41 42 42
33 35 36 39 44 44 43 46 51 55 60 67 73 79 75 55 49 53 47 48 35 28 30 32 32 33 36 37 40 44 46 51 60 64 58 69 64 61 46 35 34 36 38
Wind_Direction_500mb
133 136 128 124 125 123 156 157 162 198 148 137 134 137 129 125 134 149 117 95 86 75 75 62 44 27 54 21 9 324 322 316 308 310 313 318 320 324 324 321 323 315 316
155 153 149 156 151 155 149 150 135 142 131 127 141 126 118 124 118 125 140 103 91 65 19 16 360 358 28 342 331 329 337 318 311 302 315 318 322 319 318 318 314 311 307
154 157 154 135 126 127 146 151 171 178 173 168 162 153 146 138 136 130 138 135 62 341 309 298 303 318 319 325 337 335 328 313 303 314 306 312 311 311 313 313 303 306 315
172 164 158 172 178 170 185 197 225 208 205 202 196 186 158 127 116 116 22 333 281 269 286 302 316 320 288 319 326 339 327 326 330 314 311 309 312 313 309 312 312 307 310
223 184 169 152 196 213 206 191 197 192 164 129 182 197 193 223 237 225 232 254 246 258 269 290 304 282 309 304 321 326 321 322 324 320 313 311 313 310 318 308 305 303 308
144 140 142 175 129 94 124 165 198 212 205 204 209 208 243 229 229 259 267 281 286 284 287 272 274 289 303 298 322 309 311 312 316 316 311 305 305 308 302 302 301 308 308
169 184 212 186 171 184 237 270 225 215 226 228 226 237 256 268 242 258 269 281 290 296 298 294 288 288 286 298 297 288 299 295 304 307 305 299 297 300 296 298 305 304 305
154 193 210 200 250 203 225 261 270 238 245 256 261 255 248 250 258 268 281 287 293 297 304 306 295 292 290 297 289 293 292 291 296 298 302 297 293 291 293 298 300 306 306
191 212 207 206 207 211 219 238 243 263 270 264 258 245 249 263 265 267 276 282 294 296 291 294 292 292 287 285 285 284 291 301 310 311 303 296 298 310 302 293 301 314 305
202 204 205 200 209 217 230 240 249 253 262 256 264 272 271 272 271 269 268 275 280 281 286 287 289 285 289 289 288 300 305 308 316 320 323 321 315 313 299 292 311 312 303
192 190 205 219 221 231 236 244 253 257 258 257 257 258 257 264 269 269 266 265 269 270 291 286 279 286 292 290 297 299 303 314 315 313 319 323 315 311 301 304 314 312 300
203 206 208 223 237 252 254 257 261 268 270 274 275 277 278 279 279 276 271 267 270 276 293 284 273 283 282 285 293 300 304 309 307 313 314 311 311 313 305 312 317 316 299
212 209 224 239 247 252 265 276 281 282 283 283 286 285 289 289 290 282 277 277 286 286 288 285 273 274 284 301 305 315 313 307 313 311 306 309 310 310 315 317 314 307 310
217 233 244 258 271 278 277 279 280 279 281 286 287 290 295 292 292 284 279 290 289 296 281 274 282 291 304 319 314 318 319 313 312 311 308 311 313 318 315 317 313 315 322
245 259 262 267 275 280 275 283 287 280 282 283 281 297 301 298 294 292 300 283 254 261 277 290 301 313 315 311 315 317 317 316 316 313 314 318 319 315 319 318 316 319 320
241 255 268 281 284 280 287 279 279 264 277 281 289 307 278 318 320 309 300 296 290 290 297 311 320 319 309 317 318 317 318 318 318 316 322 318 317 319 319 321 319 322 323
259 268 275 284 285 292 288 285 277 280 289 292 279 289 324 329 335 334 324 330 322 284 301 322 306 299 311 312 314 316 317 318 316 316 318 320 323 318 323 321 323 324 326
262 259 289 276 276 270 284 274 276 268 268 270 271 271 288 294 319 337 337 339 349 308 302 313 306 306 311 313 315 316 316 317 315 313 323 323 322 324 324 325 324 325 328
266 277 280 266 271 279 269 275 270 266 263 271 253 264 270 267 305 316 303 302 314 308 297 304 307 312 314 315 314 313 314 317 317 323 323 322 325 327 325 323 320 325 330
261 261 262 276 271 262 263 255 259 256 258 250 263 273 254 243 289 317 304 295 293 299 296 301 302 305 311 311 314 314 314 319 322 320 319 322 324 318 326 319 320 329 332
258 269 265 276 276 264 273 271 267 262 260 262 268 260 262 261 252 288 289 271 286 286 296 298 302 303 306 310 313 315 314 315 315 318 317 311 313 324 322 314 326 330 333
256 258 267 264 271 267 268 261 267 273 268 262 263 266 261 257 262 268 260 267 274 281 295 296 295 294 299 308 310 311 313 314 311 303 305 309 316 323 314 323 330 331 335
259 262 265 269 272 271 270 273 270 271 267 262 264 267 267 261 258 259 250 268 277 272 281 283 294 296 296 304 306 306 310 299 299 305 310 316 319 321 324 327 332 332 331
257 264 269 275 278 278 279 279 273 271 266 264 258 260 259 263 252 241 256 280 266 272 275 286 299 292 293 302 303 303 295 297 301 306 311 315 318 322 326 330 331 327 328
248 259 265 271 277 282 285 287 288 283 279 276 279 269 262 268 254 255 249 252 271 262 277 296 290 295 298 299 303 296 292 294 299 305 310 316 319 323 328 325 325 330 335
250 258 266 273 280 284 282 281 283 283 283 283 277 270 262 251 250 240 241 259 241 272 291 290 293 292 297 299 295 294 294 298 302 308 313 317 319 322 322 320 327 329 330
Wind_Speed_850mb
29 28 28 25 23 18 20 20 18 18 15 10 9 11 11 12 16 14 9 10 7 8 7 7 8 9 6 8 9 10 13 18 34 43 46 51 53 52 56 58 58 63 70
43 41 35 21 15 26 28 25 22 15 14 10 11 12 9 10 12 14 14 6 6 7 10 10 11 10 12 9 14 15 16 22 29 45 52 55 55 57 60 62 66 57 58
34 25 18 16 14 14 18 20 21 24 24 22 21 17 14 10 12 13 9 5 3 7 8 8 8 10 12 23 21 22 19 24 36 36 50 48 50 55 61 60 63 79 66
21 16 14 11 9 10 10 12 13 13 14 20 19 15 9 8 5 5 5 4 9 10 18 18 13 14 21 33 26 40 29 41 41 49 50 51 51 55 56 69 68 82 91
20 19 13 9 13 17 14 23 22 16 13 5 4 9 5 8 11 14 19 16 16 17 21 22 17 25 28 33 34 41 42 44 53 53 57 58 58 64 65 61 74 89 104
23 22 15 13 8 6 3 2 18 21 23 25 22 16 24 21 14 26 30 24 21 23 25 21 26 34 33 29 39 36 42 52 56 58 61 63 69 63 62 70 83 91 94
17 14 17 17 16 11 10 15 15 11 9 14 17 20 19 16 18 26 29 27 28 31 32 25 27 27 32 45 50 46 57 55 58 57 69 66 70 71 70 86 87 82 87
13 15 9 9 12 11 17 18 12 8 17 22 20 18 22 28 26 28 30 33 36 40 29 35 38 40 41 47 46 58 61 61 57 68 73 68 71 74 80 78 71 83 88
16 17 18 23 17 16 17 18 17 18 19 20 20 22 26 30 25 31 37 40 42 34 38 38 44 47 49 48 52 60 59 70 80 64 53 63 58 45 46 55 65 83 87
16 19 16 19 17 18 17 20 21 26 26 26 30 32 31 35 34 39 42 44 41 37 41 47 42 42 48 53 47 56 72 79 53 56 57 49 51 52 50 53 71 74 84
13 12 14 15 17 20 24 24 23 26 27 31 36 38 40 42 43 46 44 44 45 50 52 39 37 42 45 47 57 68 70 50 56 61 61 62 62 50 52 62 74 74 83
14 12 13 16 16 18 21 22 25 28 30 33 37 41 42 42 45 49 46 43 46 49 53 44 34 44 53 62 64 45 43 52 58 58 60 54 66 61 57 76 89 80 71
13 13 13 14 18 23 25 28 31 33 34 37 38 40 42 42 46 36 24 31 38 38 26 23 38 49 55 62 33 42 44 51 48 49 61 64 55 61 73 77 75 70 97
14 17 19 23 23 25 30 33 38 38 37 37 40 40 46 48 46 47 49 31 16 18 28 35 40 54 47 34 41 36 34 43 52 55 54 54 61 73 65 72 70 89 109
15 19 26 31 36 34 33 37 36 31 31 26 32 35 28 24 21 26 27 23 27 30 42 50 50 27 31 36 36 40 45 45 49 49 50 67 62 63 73 68 74 81 94
30 30 33 32 33 37 30 28 27 23 26 25 22 18 18 20 23 25 26 26 28 31 32 32 23 28 36 37 42 43 44 47 48 54 57 51 66 68 68 73 69 79 94
28 36 30 24 25 23 21 21 23 23 25 21 17 12 14 21 21 24 21 21 24 15 22 24 25 35 36 38 39 41 43 46 51 51 47 63 60 60 67 69 70 77 103
11 20 27 18 23 28 24 25 18 21 27 24 25 22 21 20 16 16 17 21 22 17 25 27 29 36 37 38 39 41 44 50 50 46 56 54 56 59 63 67 69 81 96
19 23 21 18 22 21 23 28 22 26 25 24 20 26 28 18 16 14 23 25 19 16 18 29 34 36 38 40 42 44 43 44 43 50 52 51 53 54 63 64 77 94 80
23 27 32 35 23 25 26 24 31 28 32 25 26 31 23 19 15 21 32 33 28 28 29 33 35 38 40 42 44 43 40 42 47 50 49 47 45 58 61 66 85 81 74
22 24 21 21 24 27 28 26 33 36 35 26 29 30 32 25 24 29 27 24 31 30 32 32 33 36 40 41 42 41 39 43 47 46 41 43 56 64 57 74 80 67 64
21 24 26 25 25 28 34 36 34 43 37 34 37 40 43 45 42 30 26 29 30 29 30 36 36 35 38 40 41 41 42 43 41 40 49 62 75 70 65 75 65 58 58
23 27 28 31 34 36 39 39 41 45 48 46 43 46 53 47 34 30 29 30 30 29 38 40 39 38 37 38 40 39 38 42 45 51 63 69 74 67 71 64 53 52 55
28 29 31 35 38 39 41 42 45 49 53 58 53 47 45 43 36 41 43 45 41 45 40 44 33 32 36 40 39 35 41 50 54 58 65 72 69 71 63 49 44 47 51
29 29 31 33 40 44 46 50 47 53 61 58 57 53 61 54 45 41 39 40 37 32 34 38 29 34 37 39 39 41 42 48 56 62 68 63 65 66 54 41 41 42 42
33 35 36 39 44 44 43 46 51 55 60 67 73 79 75 55 49 53 47 48 35 28 30 32 32 33 36 37 40 44 46 51 60 64 58 69 64 61 46 35 34 36 38
Wind_Direction_850mb
133 136 128 124 125 123 156 157 162 198 148 137 134 137 129 125 134 149 117 95 86 75 75 62 44 27 54 21 9 324 322 316 308 310 313 318 320 324 324 321 323 315 316
155 153 149 156 151 155 149 150 135 142 131 127 141 126 118 124 118 125 140 103 91 65 19 16 360 358 28 342 331 329 337 318 311 302 315 318 322 319 318 318 314 311 307
154 157 154 135 126 127 146 151 171 178 173 168 162 153 146 138 136 130 138 135 62 341 309 298 303 318 319 325 337 335 328 313 303 314 306 312 311 311 313 313 303 306 315
172 164 158 172 178 170 185 197 225 208 205 202 196 186 158 127 116 116 22 333 281 269 286 302 316 320 288 319 326 339 327 326 330 314 311 309 312 313 309 312 312 307 310
223 184 169 152 196 213 206 191 197 192 164 129 182 197 193 223 237 225 232 254 246 258 269 290 304 282 309 304 321 326 321 322 324 320 313 311 313 310 318 308 305 303 308
144 140 142 175 129 94 124 165 198 212 205 204 209 208 243 229 229 259 267 281 286 284 287 272 274 289 303 298 322 309 311 312 316 316 311 305 305 308 302 302 301 308 308
169 184 212 186 171 184 237 270 225 215 226 228 226 237 256 268 242 258 269 281 290 296 298 294 288 288 286 298 297 288 299 295 304 307 305 299 297 300 296 298 305 304 305
154 193 210 200 250 203 225 261 270 238 245 256 261 255 248 250 258 268 281 287 293 297 304 306 295 292 290 297 289 293 292 291 296 298 302 297 293 291 293 298 300 306 306
191 212 207 206 207 211 219 238 243 263 270 264 258 245 249 263 265 267 276 282 294 296 291 294 292 292 287 285 285 284 291 301 310 311 303 296 298 310 302 293 301 314 305
202 204 205 200 209 217 230 240 249 253 262 256 264 272 271 272 271 269 268 275 280 281 286 287 289 285 289 289 288 300 305 308 316 320 323 321 315 313 299 292 311 312 303
192 190 205 219 221 231 236 244 253 257 258 257 257 258 257 264 269 269 266 265 269 270 291 286 279 286 292 290 297 299 303 314 315 313 319 323 315 311 301 304 314 312 300
203 206 208 223 237 252 254 257 261 268 270 274 275 277 278 279 279 276 271 267 270 276 293 284 273 283 282 285 293 300 304 309 307 313 314 311 311 313 305 312 317 316 299
212 209 224 239 247 252 265 276 281 282 283 283 286 285 289 289 290 282 277 277 286 286 288 285 273 274 284 301 305 315 313 307 313 311 306 309 310 310 315 317 314 307 310
217 233 244 258 271 278 277 279 280 279 281 286 287 290 295 292 292 284 279 290 289 296 281 274 282 291 304 319 314 318 319 313 312 311 308 311 313 318 315 317 313 315 322
245 259 262 267 275 280 275 283 287 280 282 283 281 297 301 298 294 292 300 283 254 261 277 290 301 313 315 311 315 317 317 316 316 313 314 318 319 315 319 318 316 319 320
241 255 268 281 284 280 287 279 279 264 277 281 289 307 278 318 320 309 300 296 290 290 297 311 320 319 309 317 318 317 318 318 318 316 322 318 317 319 319 321 319 322 323
259 268 275 284 285 292 288 285 277 280 289 292 279 289 324 329 335 334 324 330 322 284 301 322 306 299 311 312 314 316 317 318 316 316 318 320 323 318 323 321 323 324 326
262 259 289 276 276 270 284 274 276 268 268 270 271 271 288 294 319 337 337 339 349 308 302 313 306 306 311 313 315 316 316 317 315 313 323 323 322 324 324 325 324 325 328
266 277 280 266 271 279 269 275 270 266 263 271 253 264 270 267 305 316 303 302 314 308 297 304 307 312 314 315 314 313 314 317 317 323 323 322 325 327 325 323 320 325 330
261 261 262 276 271 262 263 255 259 256 258 250 263 273 254 243 289 317 304 295 293 299 296 301 302 305 311 311 314 314 314 319 322 320 319 322 324 318 326 319 320 329 332
258 269 265 276 276 264 273 271 267 262 260 262 268 260 262 261 252 288 289 271 286 286 296 298 302 303 306 310 313 315 314 315 315 318 317 311 313 324 322 314 326 330 333
256 258 267 264 271 267 268 261 267 273 268 262 263 266 261 257 262 268 260 267 274 281 295 296 295 294 299 308 310 311 313 314 311 303 305 309 316 323 314 323 330 331 335
259 262 265 269 272 271 270 273 270 271 267 262 264 267 267 261 258 259 250 268 277 272 281 283 294 296 296 304 306 306 310 299 299 305 310 316 319 321 324 327 332 332 331
257 264 269 275 278 278 279 279 273 271 266 264 258 260 259 263 252 241 256 280 266 272 275 286 299 292 293 302 303 303 295 297 301 306 311 315 318 322 326 330 331 327 328
248 259 265 271 277 282 285 287 288 283 279 276 279 269 262 268 254 255 249 252 271 262 277 296 290 295 298 299 303 296 292 294 299 305 310 316 319 323 328 325 325 330 335
250 258 266 273 280 284 282 281 283 283 283 283 277 270 262 251 250 240 241 259 241 272 291 290 293 292 297 299 295 294 294 298 302 308 313 317 319 322 322 320 327 329 330